Погода в Ширазе

Иран     29°37′03″N   52°30′17″E
В апреле 2022 года жителям России запретили посещать сайт meteo.paraplan.net по решению Генеральной прокуратуры. Аудитория сайта уменьшилась в 10 раз. Владельцы сайта не видят смысла в поддержке погодного сервера в таких условиях. Сайт будет закрыт в октябре.
темп.,
°C
ветер,
м/с
пор.,
м/с
влажн.,
%
обл.,
%
осадки,
мм/ч
давл.,
гПа
погр.,
м
25 сентября, вс
вс2500:30+22ссз33220 0.0 101128
03:30+21ссз22210 0.0 101011
06:30+20с12230 0.0 101211
09:30+26всв11140 0.0 1012702
12:30+29всв13100 0.0 10102343
15:30+30вюв1290 0.0 10082621
18:30+27ю33100 0.0 100831
21:30+24зсз33140 0.0 101122
26 сентября, пн
пн2600:30+22ссз33180 0.0 101119
03:30+21ссз22190 0.0 101111
06:30+20ссв11210 0.0 101311
09:30+26всв12110 0.0 1014573
12:30+30в2290 0.0 10112621
15:30+30в2270 0.0 10092713
18:30+27ююз22100 0.0 101011
21:30+23з32211 0.0 101330
27 сентября, вт
вт2700:30+22сз22220 0.0 101214
03:30+20сз22220 0.0 101211
06:30+19с11240 0.0 101311
09:30+25всв11130 0.0 1013556
12:30+29в2290 0.0 10101858
15:30+30вюв1270 0.0 10083592
18:30+25з33160 0.0 101056
21:30+22з22190 0.0 101223
28 сентября, ср
ср2800:30+21зсз22170 0.0 101214
03:30+20зсз22150 0.0 101114
06:30+19зсз11170 0.0 101211
09:30+26св02100 0.0 1011811
12:30+29юв2380 0.0 10082978
15:30+29юз3380 0.0 10062939
18:30+24зюз33120 0.0 100848
21:30+21зюз22160 0.0 101015
29 сентября, чт
чт2900:30+19зсз22180 0.0 101013
03:30+18сз11190 0.0 100911
06:30+18ссз00210 0.0 101011
09:30+24всв11130 0.0 1010506
12:30+28вюв24100 0.0 10072108
15:30+29юв3390 0.0 10063494
18:30+24юз33120 0.0 100831
21:30+21з22150 0.0 101019